User: anonymous   Login
Location: Adrasan
(36.3319°N, 30.4314°E)
Time: 05:15:34
(UTC+00:00)
Language:

COSMO-SKYMED 1 - Orbit

View from above orbital plane
View from above orbital plane
View from above satellite
View from above satellite

Ground track
Ground track

The orbit data is extracted from the following two-line orbital elements,

1 31598U 07023A   24108.84903524  .00001673  00000-0  21669-3 0  9992
2 31598  97.8870 292.8798 0001443  85.6567 274.4811 14.82153992912251
Epoch (UTC): 17 April 2024 20:22:36
Eccentricity: 0.0001443
inclination: 97.8870°
perigee height: 621 km
apogee height: 623 km
right ascension of ascending node: 292.8798°
argument of perigee: 85.6567°
revolutions per day: 14.82153992
mean anomaly at epoch: 274.4811°
orbit number at epoch: 91225

The dashed part of the orbit path shows where the satellite is in the earth's shadow,  

DLR